Seattle, WA

9:18 AM PDT on October 23, 2017 (GMT -0700)
Seattle-Tacoma International

Weather History for KSEA - October, 2005

Change the Weather History Date:

Thursday, October 20, 2005

  Actual Average Record
Temperature  
Mean Temperature 52 °F 52 °F  
Max Temperature 58 °F 58 °F 69 °F (1987)
Min Temperature 45 °F 45 °F 29 °F (1949)
Degree Days  
Heating Degree Days 13 13  
Month to date heating degree days 200 215  
Since 1 July heating degree days 412 432  
Cooling Degree Days 0 0  
Month to date cooling degree days 0 0  
Year to date cooling degree days 162 189  
Growing Degree Days 1 (Base 50)    
Moisture  
Dew Point 45 °F    
Average Humidity 76    
Maximum Humidity 100    
Minimum Humidity 51    
Precipitation  
Precipitation 0.00 in 0.12 in 5.02 in (2003)
Month to date precipitation 1.50 1.85  
Year to date precipitation 21.75 23.94  
Snow  
Snow 0.00 in - - ()
Month to date snowfall 0.0  
Since 1 July snowfall 0.0  
Snow Depth -    
Sea Level Pressure  
Sea Level Pressure 30.22 in    
Wind  
Wind Speed 3 mph (South)    
Max Wind Speed 10 mph    
Max Gust Speed 14 mph    
Visibility 10 miles    
Events      
T = Trace of Precipitation, MM = Missing Value Source: NWS Daily Summary

Daily Weather History Graph

Daily Weather History Graph

Search for Another Location

Airport or City:

Trip Planner

Search our weather history database for the weather conditions in past years. The results will help you decide how hot, cold, wet, or windy it might be!

Date:

Astronomy

Oct. 20, 2005 Rise Set
Actual Time 7:35 AM PDT 6:11 PM PDT
Civil Twilight 7:04 AM PDT 6:42 PM PDT
Nautical Twilight 6:28 AM PDT 7:18 PM PDT
Astronomical Twilight 5:52 AM PDT 7:53 PM PDT
Moon 7:41 PM PDT (10/20) 11:44 AM PDT (10/20)
Length of Visible Light 11h 38m
Length of Day
10h 36m
Waning Gibbous, 87% of the Moon is Illuminated
Oct 20
Waning Gibbous
Oct 24
Last Quarter
Nov 1
New
Nov 8
First Quarter
Nov 15
Full

Hourly Weather History & Observations

Time (PDT) Temp. Dew Point Humidity Pressure Visibility Wind Dir Wind Speed Gust Speed Precip Events Conditions
12:56 AM 52.0 °F 46.9 °F 83% 30.14 in 10.0 mi WSW 9.2 mph - N/A   Overcast
1:56 AM 52.0 °F 46.0 °F 80% 30.15 in 10.0 mi SW 8.1 mph - N/A   Overcast
2:56 AM 50.0 °F 46.0 °F 86% 30.16 in 10.0 mi South 5.8 mph - N/A   Mostly Cloudy
3:12 AM 51.8 °F 46.4 °F 82% 30.15 in 10.0 mi South 6.9 mph - N/A   Mostly Cloudy
3:56 AM 48.0 °F 46.0 °F 93% 30.18 in 10.0 mi South 4.6 mph - N/A   Mostly Cloudy
4:03 AM 48.2 °F 46.4 °F 93% 30.16 in 10.0 mi SSE 4.6 mph - N/A   Scattered Clouds
4:56 AM 46.9 °F 46.0 °F 97% 30.18 in 10.0 mi South 4.6 mph - N/A   Scattered Clouds
5:56 AM 46.9 °F 46.0 °F 97% 30.19 in 10.0 mi Calm Calm - N/A   Scattered Clouds
6:56 AM 48.0 °F 46.0 °F 93% 30.20 in 10.0 mi WSW 4.6 mph - N/A   Scattered Clouds
7:56 AM 45.0 °F 45.0 °F 100% 30.22 in 10.0 mi Calm Calm - N/A   Scattered Clouds
8:56 AM 48.0 °F 46.9 °F 96% 30.23 in 10.0 mi South 4.6 mph - N/A   Mostly Cloudy
9:45 AM 50.0 °F 48.2 °F 94% 30.22 in 10.0 mi Calm Calm - N/A   Partly Cloudy
9:56 AM 51.1 °F 46.9 °F 86% 30.25 in 10.0 mi Calm Calm - N/A   Mostly Cloudy
10:56 AM 52.0 °F 46.9 °F 83% 30.26 in 10.0 mi SW 4.6 mph - N/A   Mostly Cloudy
11:56 AM 54.0 °F 46.0 °F 75% 30.26 in 10.0 mi Calm Calm - N/A   Mostly Cloudy
12:56 PM 55.9 °F 45.0 °F 67% 30.25 in 10.0 mi Variable 5.8 mph - N/A   Mostly Cloudy
1:56 PM 57.0 °F 39.0 °F 51% 30.25 in 10.0 mi Variable 6.9 mph - N/A   Mostly Cloudy
2:56 PM 57.9 °F 42.1 °F 56% 30.25 in 10.0 mi Variable 5.8 mph - N/A   Overcast
3:56 PM 55.9 °F 42.1 °F 60% 30.26 in 10.0 mi SSW 4.6 mph - N/A   Overcast
4:56 PM 57.0 °F 41.0 °F 55% 30.26 in 10.0 mi Calm Calm - N/A   Overcast
5:56 PM 55.9 °F 42.1 °F 60% 30.25 in 10.0 mi Calm Calm - N/A   Mostly Cloudy
6:56 PM 55.9 °F 43.0 °F 62% 30.25 in 10.0 mi East 6.9 mph - N/A   Mostly Cloudy
7:56 PM 55.0 °F 43.0 °F 64% 30.25 in 10.0 mi East 3.5 mph - N/A   Mostly Cloudy
8:56 PM 53.1 °F 46.0 °F 77% 30.25 in 10.0 mi Calm Calm - N/A   Overcast
9:56 PM 53.1 °F 46.9 °F 80% 30.25 in 10.0 mi Calm Calm - N/A   Overcast
10:56 PM 54.0 °F 45.0 °F 72% 30.24 in 10.0 mi ENE 5.8 mph - N/A   Mostly Cloudy
11:56 PM 54.0 °F 45.0 °F 72% 30.23 in 10.0 mi Calm Calm - N/A   Mostly Cloudy